COSMOS 397 DEB, 5012

Orbit data source: Space-Track

COSMOS 397 DEB, 5012 is space debris in LEO originally from a launch on Thu, 25 Feb 1971 UTC launched from the Tyuratam Missile And Space Complex (TTMTR). Debris objects in space refer to the collection of defunct objects orbiting the Earth. Examples of debris include non-operational satellites, rocket bodies, and fragments generated from explosions, collisions, or faulty payload assembly.

Loading next visibility...
Identifier
5012, 1971-015F
Orbit
LEO
Country
Flag of CISCIS
Related business
Manufacturer
Unknown
Mission
Spacecraft
Bus & Motor
Unknown
Mass
Unknown
Launch date (UTC)
1971-02-25 (55 years ago)
Launch vehicle
Unknown
Launch site
Tyuratam Missile And Space Complex (TTMTR)
Object type
Payload
Rocket body
Debris
Shape & HBR
Unknown shape, 0.1 m
Radar Cross Section
Small (<0.1 m²)

Expand to show TLE details & history
Last TLE update: 23 hours ago

TLE from 23 hours ago
0 COSMOS 397 DEB
1 05012U 71015F   25348.66746092  .00009810  00000-0  13552-2 0  9990
2 05012  65.7325 129.8719 0368722 300.6659  55.8572 14.41078033673843
Epoch: 2025-12-14T16:01Z
TLE epoch observation values (Epoch: 2025-12-14T16:01:08.623Z)
Latitude
-0.00005°
Longitude
166.00886°
Altitude
616.206 km
Speed
7.625 km/s
True Right ascension
08h 39m 29s
True Declination
0° 00' 00"
Sunlit
Object was in full shadow at epoch
Visualization orbit readout
Latitude
Unknown
Longitude
Unknown
Altitude
Unknown
Speed
Unknown
Apparent Right ascension
Unknown
Apparent Declination
Unknown
Sunlit
N/A
Visualization observer readout
Local Sidereal Time
13:19:03
Azimuth
Unknown
Elevation
Unknown
Doppler factor
Unknown
Orbital elements
Apogee altitude
1,016.374 km
Perigee altitude
490.462 km
Semi-major axis
7,131.555 km
Eccentricity
0.03687
Inclination
65.7325°
RAAN
129.8719°
Arg. of periapsis
300.6659°
True anomaly
59.44459°
Mean anomaly
55.8572°
Eccentric anomaly
57.64177°
Mean motion
3.60385 °/min
Orbital period
99.89 mins
BSTAR
0.0013552
Loading maneuver chart data...
Computing Atmospheric mass density...
Loading historical data...
Loading historical data...
Loading historical data...
Loading historical data...
Loading historical data...
Loading historical data...
Loading historical data...

Documentation

Showing up to 5 results
|